DLH4EJ EIDW-EDDF

Flight info

Callsign DLH4EJ
Flight time 1h 37m
Altitude 33000
Route ENDEQ3J ENDEQ Q36 EPOXI L15 PIXUP/N0429F370 L15 FINMA DCT CHT DCT ITVIP DCT KONAN UL607 SPI T180 NIVNU T847 IMCOM IMCOM1A
Aircraft A320/M-SDE2E3FGIJ1LORWXYZ/HB1

Departure

Time 2026-04-17 12:03
Airport Dublin Airport (EIDW)

Arrival

Time 2026-04-17 13:41
Airport Frankfurt Main Airport (EDDF)
Time Latitude Longitude Altitude Speed Heading
2026-04-17 11:39 53.43000 -6.24747 238 ft 0 kts
2026-04-17 11:55 53.42983 -6.24750 211 ft 4 kts
2026-04-17 11:55 53.42957 -6.24754 211 ft 4 kts 349°
2026-04-17 11:55 53.42939 -6.24733 218 ft 4 kts 283°
2026-04-17 11:56 53.42937 -6.24727 216 ft 4 kts 275°
2026-04-17 11:56 53.42939 -6.24756 211 ft 0 kts 275°
2026-04-17 11:58 53.42945 -6.24862 211 ft 15 kts 275°
2026-04-17 11:58 53.42954 -6.25042 215 ft 16 kts 275°
2026-04-17 11:59 53.42965 -6.25237 211 ft 17 kts 286°
2026-04-17 11:59 53.43042 -6.25311 216 ft 12 kts 329°
2026-04-17 11:59 53.43112 -6.25371 213 ft 11 kts 335°
2026-04-17 11:59 53.43186 -6.25375 217 ft 13 kts 46°
2026-04-17 12:00 53.43206 -6.25193 211 ft 21 kts 94°
2026-04-17 12:00 53.43195 -6.24944 211 ft 21 kts 96°
2026-04-17 12:00 53.43182 -6.24745 211 ft 12 kts 96°
2026-04-17 12:00 53.43196 -6.24615 211 ft 11 kts 89°
2026-04-17 12:01 53.43189 -6.24497 211 ft 10 kts 91°
2026-04-17 12:01 53.43245 -6.24412 211 ft 14 kts
2026-04-17 12:01 53.43332 -6.24426 214 ft 12 kts 317°
2026-04-17 12:01 53.43364 -6.24541 216 ft 11 kts 316°
2026-04-17 12:02 53.43428 -6.24556 212 ft 9 kts
2026-04-17 12:02 53.43478 -6.24550 220 ft 6 kts
2026-04-17 12:02 53.43511 -6.24568 213 ft 6 kts 303°
2026-04-17 12:02 53.43529 -6.24680 213 ft 14 kts 276°
2026-04-17 12:03 53.43545 -6.24940 212 ft 47 kts 274°
2026-04-17 12:03 53.43594 -6.25895 211 ft 115 kts 275°
2026-04-17 12:03 53.43690 -6.27542 257 ft 162 kts 273°
2026-04-17 12:03 53.43831 -6.29414 974 ft 162 kts 276°
2026-04-17 12:04 53.44395 -6.31123 1785 ft 180 kts 304°
2026-04-17 12:04 53.45254 -6.32797 2287 ft 200 kts 302°
2026-04-17 12:04 53.46260 -6.34559 2916 ft 222 kts 320°
2026-04-17 12:04 53.47791 -6.35285 3758 ft 240 kts 353°
2026-04-17 12:05 53.49463 -6.35184 4604 ft 243 kts 357°
2026-04-17 12:05 53.51122 -6.34487 5396 ft 256 kts 29°
2026-04-17 12:05 53.52331 -6.32303 6101 ft 264 kts 67°
2026-04-17 12:05 53.52689 -6.29255 6576 ft 274 kts 94°
2026-04-17 12:06 53.52665 -6.25930 7071 ft 293 kts 97°
2026-04-17 12:06 53.52581 -6.22485 7668 ft 297 kts 97°
2026-04-17 12:06 53.52480 -6.18990 8443 ft 303 kts 98°
2026-04-17 12:06 53.52386 -6.15442 9356 ft 307 kts 97°
2026-04-17 12:07 53.52303 -6.11836 10183 ft 315 kts 97°
2026-04-17 12:07 53.52196 -6.08030 10496 ft 337 kts 101°
2026-04-17 12:07 53.51735 -6.04096 10889 ft 351 kts 110°
2026-04-17 12:07 53.51154 -6.00086 11599 ft 358 kts 110°
2026-04-17 12:08 53.50565 -5.95999 12375 ft 362 kts 110°
2026-04-17 12:08 53.49972 -5.91870 13168 ft 367 kts 110°
2026-04-17 12:08 53.49373 -5.87684 13906 ft 372 kts 110°
2026-04-17 12:08 53.48761 -5.83432 14478 ft 379 kts 110°
2026-04-17 12:09 53.48175 -5.79088 15142 ft 384 kts 109°
2026-04-17 12:09 53.47622 -5.74678 15822 ft 389 kts 109°
2026-04-17 12:09 53.47085 -5.70220 16505 ft 392 kts 109°
2026-04-17 12:09 53.46543 -5.65717 17175 ft 396 kts 109°
2026-04-17 12:10 53.45987 -5.61195 17840 ft 399 kts 109°
2026-04-17 12:10 53.45414 -5.56622 18471 ft 403 kts 109°
2026-04-17 12:10 53.44831 -5.52004 19052 ft 407 kts 109°
2026-04-17 12:10 53.44493 -5.47237 19622 ft 419 kts 99°
2026-04-17 12:11 53.44374 -5.42340 20204 ft 423 kts 99°
2026-04-17 12:11 53.44255 -5.37408 20794 ft 426 kts 99°
2026-04-17 12:11 53.44133 -5.32480 21350 ft 430 kts 99°
2026-04-17 12:12 53.43875 -5.22376 22447 ft 437 kts 99°
2026-04-17 12:12 53.43738 -5.17302 22972 ft 440 kts 99°
2026-04-17 12:12 53.43592 -5.12134 23483 ft 443 kts 100°
2026-04-17 12:12 53.43439 -5.06978 23905 ft 446 kts 100°
2026-04-17 12:13 53.43278 -5.01773 24316 ft 449 kts 100°
2026-04-17 12:13 53.43110 -4.96528 24709 ft 453 kts 101°
2026-04-17 12:13 53.42937 -4.91245 25097 ft 456 kts 101°
2026-04-17 12:13 53.42758 -4.85942 25477 ft 459 kts 101°
2026-04-17 12:14 53.42576 -4.80604 25846 ft 462 kts 101°
2026-04-17 12:14 53.42393 -4.75216 26214 ft 465 kts 101°
2026-04-17 12:14 53.42209 -4.69810 26575 ft 468 kts 101°
2026-04-17 12:14 53.42022 -4.64357 26924 ft 471 kts 101°
2026-04-17 12:15 53.41832 -4.58873 27264 ft 474 kts 101°
2026-04-17 12:15 53.41640 -4.53377 27597 ft 477 kts 102°
2026-04-17 12:15 53.41442 -4.47806 27933 ft 480 kts 102°
2026-04-17 12:15 53.41240 -4.42225 28255 ft 482 kts 102°
2026-04-17 12:16 53.41034 -4.36599 28572 ft 485 kts 102°
2026-04-17 12:16 53.40827 -4.30962 28871 ft 488 kts 102°
2026-04-17 12:16 53.40615 -4.25283 29156 ft 490 kts 102°
2026-04-17 12:16 53.40396 -4.19580 29434 ft 493 kts 102°
2026-04-17 12:17 53.40175 -4.13846 29705 ft 495 kts 102°
2026-04-17 12:17 53.39950 -4.08108 29956 ft 498 kts 102°
2026-04-17 12:17 53.39718 -4.02317 30189 ft 500 kts 103°
2026-04-17 12:17 53.39483 -3.96489 30407 ft 502 kts 103°
2026-04-17 12:18 53.39249 -3.90666 30654 ft 502 kts 103°
2026-04-17 12:18 53.39016 -3.84843 30966 ft 501 kts 103°
2026-04-17 12:18 53.38780 -3.79046 31273 ft 500 kts 103°
2026-04-17 12:18 53.38538 -3.73249 31579 ft 499 kts 103°
2026-04-17 12:19 53.38183 -3.67520 31891 ft 490 kts 110°
2026-04-17 12:19 53.37404 -3.62064 32188 ft 477 kts 118°
2026-04-17 12:19 53.36235 -3.56935 32491 ft 467 kts 124°
2026-04-17 12:19 53.34958 -3.51968 32801 ft 466 kts 124°
2026-04-17 12:20 53.33571 -3.47129 33111 ft 455 kts 131°
2026-04-17 12:20 53.31854 -3.42809 33427 ft 441 kts 140°
2026-04-17 12:20 53.29881 -3.38963 33774 ft 434 kts 143°
2026-04-17 12:20 53.27890 -3.35208 34117 ft 433 kts 143°
2026-04-17 12:21 53.26351 -3.32303 34325 ft 433 kts 143°
2026-04-17 12:21 53.24941 -3.29648 34501 ft 433 kts 143°
2026-04-17 12:21 53.22938 -3.25886 34737 ft 434 kts 143°
2026-04-17 12:21 53.20955 -3.22157 34959 ft 435 kts 142°
2026-04-17 12:22 53.18939 -3.18362 35181 ft 436 kts 142°
2026-04-17 12:22 53.16929 -3.14571 35407 ft 437 kts 142°
2026-04-17 12:22 53.14923 -3.10784 35619 ft 437 kts 142°
2026-04-17 12:22 53.12909 -3.06997 35796 ft 439 kts 142°
2026-04-17 12:23 53.10883 -3.03198 35982 ft 439 kts 142°
2026-04-17 12:23 53.08868 -2.99427 36214 ft 439 kts 141°
2026-04-17 12:23 53.06830 -2.95622 36427 ft 440 kts 141°
2026-04-17 12:23 53.04795 -2.91830 36620 ft 440 kts 141°
2026-04-17 12:24 53.02760 -2.88043 36844 ft 441 kts 141°
2026-04-17 12:24 53.00734 -2.84282 36994 ft 442 kts 141°
2026-04-17 12:24 52.98669 -2.80462 37031 ft 442 kts 141°
2026-04-17 12:25 52.94571 -2.72893 37028 ft 442 kts 141°
2026-04-17 12:25 52.90473 -2.65321 37028 ft 442 kts 141°
2026-04-17 12:26 52.86370 -2.57761 37038 ft 442 kts 141°
2026-04-17 12:26 52.82253 -2.50229 37022 ft 442 kts 141°
2026-04-17 12:27 52.78139 -2.42713 37023 ft 442 kts 141°
2026-04-17 12:27 52.74016 -2.35191 37036 ft 443 kts 141°
2026-04-17 12:28 52.69887 -2.27693 37038 ft 443 kts 141°
2026-04-17 12:28 52.65747 -2.20197 37042 ft 443 kts 141°
2026-04-17 12:29 52.61600 -2.12705 37050 ft 444 kts 141°
2026-04-17 12:29 52.57447 -2.05214 37061 ft 444 kts 141°
2026-04-17 12:30 52.53283 -1.97745 37066 ft 444 kts 141°
2026-04-17 12:30 52.49110 -1.90279 37068 ft 444 kts 141°
2026-04-17 12:31 52.44933 -1.82835 37067 ft 444 kts 141°
2026-04-17 12:31 52.40757 -1.75398 37064 ft 444 kts 141°
2026-04-17 12:32 52.36569 -1.67975 37062 ft 445 kts 141°
2026-04-17 12:32 52.32353 -1.60614 37062 ft 444 kts 142°
2026-04-17 12:33 52.28094 -1.53358 37088 ft 444 kts 142°
2026-04-17 12:33 52.23810 -1.46111 37091 ft 444 kts 142°
2026-04-17 12:34 52.19528 -1.38871 37083 ft 445 kts 142°
2026-04-17 12:34 52.15247 -1.31619 37083 ft 445 kts 142°
2026-04-17 12:35 52.10965 -1.24370 37082 ft 445 kts 142°
2026-04-17 12:35 52.06669 -1.17127 37084 ft 446 kts 142°
2026-04-17 12:37 51.88803 -0.89643 37104 ft 441 kts 147°
2026-04-17 12:38 51.84180 -0.83115 37105 ft 443 kts 146°
2026-04-17 12:38 51.79587 -0.76507 37105 ft 443 kts 145°
2026-04-17 12:39 51.74990 -0.69900 37110 ft 444 kts 145°
2026-04-17 12:39 51.70381 -0.63308 37126 ft 444 kts 145°
2026-04-17 12:40 51.65767 -0.56730 37133 ft 446 kts 143°
2026-04-17 12:40 51.61942 -0.48708 37141 ft 463 kts 123°
2026-04-17 12:41 51.59651 -0.38933 37136 ft 471 kts 113°
2026-04-17 12:41 51.57593 -0.28946 37136 ft 471 kts 114°
2026-04-17 12:42 51.55511 -0.18981 37138 ft 471 kts 114°
2026-04-17 12:42 51.53414 -0.09019 37154 ft 472 kts 114°
2026-04-17 12:43 51.51322 0.00906 37156 ft 472 kts 113°
2026-04-17 12:43 51.49213 0.10884 37158 ft 471 kts 113°
2026-04-17 12:44 51.47110 0.20823 37158 ft 471 kts 113°
2026-04-17 12:44 51.44987 0.30744 37160 ft 471 kts 113°
2026-04-17 12:45 51.42859 0.40634 37168 ft 471 kts 113°
2026-04-17 12:45 51.40721 0.50559 37167 ft 471 kts 113°
2026-04-17 12:46 51.38579 0.60448 37174 ft 471 kts 113°
2026-04-17 12:46 51.36422 0.70314 37170 ft 471 kts 113°
2026-04-17 12:47 51.34258 0.80185 37180 ft 471 kts 113°
2026-04-17 12:47 51.32091 0.90062 37182 ft 471 kts 113°
2026-04-17 12:48 51.29923 0.99916 37191 ft 471 kts 112°
2026-04-17 12:48 51.27977 1.09913 37198 ft 473 kts 107°
2026-04-17 12:49 51.26334 1.20072 37199 ft 473 kts 107°
2026-04-17 12:49 51.24692 1.30219 37202 ft 473 kts 107°
2026-04-17 12:50 51.23040 1.40336 37204 ft 473 kts 107°
2026-04-17 12:50 51.21370 1.50489 37204 ft 473 kts 107°
2026-04-17 12:51 51.19693 1.60618 37210 ft 473 kts 107°
2026-04-17 12:51 51.18006 1.70740 37213 ft 473 kts 107°
2026-04-17 12:52 51.16308 1.80853 37217 ft 473 kts 107°
2026-04-17 12:52 51.14604 1.90958 37221 ft 473 kts 107°
2026-04-17 12:53 51.13052 2.01125 37227 ft 475 kts 99°
2026-04-17 12:53 51.12477 2.11580 37224 ft 475 kts 96°
2026-04-17 12:54 51.11916 2.22037 37223 ft 475 kts 96°
2026-04-17 12:54 51.11332 2.32483 37215 ft 475 kts 96°
2026-04-17 12:55 51.10737 2.42920 37226 ft 475 kts 96°
2026-04-17 12:55 51.10140 2.53371 37223 ft 475 kts 96°
2026-04-17 12:56 51.09506 2.63819 37213 ft 475 kts 99°
2026-04-17 12:56 51.07900 2.73957 37227 ft 474 kts 107°
2026-04-17 12:57 51.06072 2.84004 37219 ft 474 kts 107°
2026-04-17 12:57 51.04240 2.94022 37221 ft 474 kts 107°
2026-04-17 12:58 51.02393 3.04088 37218 ft 475 kts 107°
2026-04-17 12:58 51.01469 3.09116 36959 ft 477 kts 107°
2026-04-17 12:58 51.00542 3.14143 36430 ft 475 kts 107°
2026-04-17 12:58 50.99615 3.19142 36044 ft 474 kts 107°
2026-04-17 12:59 50.98682 3.24162 35784 ft 474 kts 107°
2026-04-17 12:59 50.97749 3.29181 35524 ft 475 kts 107°
2026-04-17 12:59 50.96817 3.34188 35286 ft 476 kts 107°
2026-04-17 12:59 50.95882 3.39194 35167 ft 476 kts 107°
2026-04-17 13:00 50.94941 3.44236 35205 ft 477 kts 107°
2026-04-17 13:00 50.93048 3.54300 35204 ft 477 kts 107°
2026-04-17 13:01 50.91137 3.64351 35209 ft 478 kts 107°
2026-04-17 13:01 50.89211 3.74402 35214 ft 478 kts 108°
2026-04-17 13:02 50.87268 3.84439 35224 ft 478 kts 108°
2026-04-17 13:02 50.85316 3.94461 35230 ft 477 kts 108°
2026-04-17 13:03 50.83427 4.04119 35229 ft 477 kts 107°
2026-04-17 13:03 50.81482 4.14038 35227 ft 477 kts 107°
2026-04-17 13:04 50.79514 4.24025 35229 ft 477 kts 107°
2026-04-17 13:04 50.77534 4.34004 35229 ft 477 kts 108°
2026-04-17 13:05 50.75545 4.43965 35229 ft 476 kts 108°
2026-04-17 13:05 50.73549 4.53923 35229 ft 476 kts 108°
2026-04-17 13:06 50.71559 4.63827 35225 ft 476 kts 107°
2026-04-17 13:06 50.69620 4.73822 35226 ft 476 kts 107°
2026-04-17 13:07 50.67710 4.83789 35225 ft 476 kts 107°
2026-04-17 13:07 50.65774 4.93731 35223 ft 476 kts 107°
2026-04-17 13:08 50.63761 5.03630 35223 ft 476 kts 108°
2026-04-17 13:08 50.61695 5.13519 35219 ft 476 kts 108°
2026-04-17 13:09 50.59628 5.23402 35218 ft 476 kts 108°
2026-04-17 13:09 50.57571 5.33277 35215 ft 476 kts 108°
2026-04-17 13:10 50.55512 5.43152 35217 ft 476 kts 107°
2026-04-17 13:10 50.53443 5.53022 35214 ft 476 kts 108°
2026-04-17 13:11 50.51364 5.62852 35216 ft 476 kts 107°
2026-04-17 13:11 50.49427 5.72756 35214 ft 476 kts 105°
2026-04-17 13:12 50.47614 5.82782 35212 ft 476 kts 104°
2026-04-17 13:12 50.44865 5.97723 35212 ft 476 kts 105°
2026-04-17 13:13 50.42973 6.07648 35209 ft 476 kts 105°
2026-04-17 13:13 50.41070 6.17551 35202 ft 475 kts 105°
2026-04-17 13:14 50.39165 6.27466 34155 ft 481 kts 105°
2026-04-17 13:14 50.38190 6.32527 32806 ft 489 kts 106°
2026-04-17 13:14 50.37204 6.37638 31583 ft 493 kts 106°
2026-04-17 13:15 50.36394 6.42844 30387 ft 494 kts 99°
2026-04-17 13:15 50.36017 6.48181 29302 ft 492 kts 94°
2026-04-17 13:15 50.35714 6.53437 28706 ft 480 kts 95°
2026-04-17 13:15 50.35396 6.58588 27972 ft 473 kts 95°
2026-04-17 13:16 50.35065 6.63662 27268 ft 467 kts 95°
2026-04-17 13:16 50.34729 6.68657 26587 ft 461 kts 96°
2026-04-17 13:16 50.34393 6.73643 25907 ft 456 kts 96°
2026-04-17 13:16 50.34072 6.78503 25247 ft 452 kts 96°
2026-04-17 13:17 50.33705 6.83363 24583 ft 448 kts 100°
2026-04-17 13:17 50.32931 6.88073 23927 ft 443 kts 110°
2026-04-17 13:17 50.31737 6.92482 23223 ft 439 kts 116°
2026-04-17 13:17 50.30460 6.96775 22641 ft 432 kts 116°
2026-04-17 13:18 50.29201 7.00997 22068 ft 427 kts 116°
2026-04-17 13:18 50.27959 7.05148 21518 ft 421 kts 116°
2026-04-17 13:18 50.26725 7.09277 20974 ft 417 kts 116°
2026-04-17 13:18 50.25513 7.13326 20434 ft 413 kts 116°
2026-04-17 13:19 50.24298 7.17380 19905 ft 411 kts 116°
2026-04-17 13:19 50.23085 7.21422 19364 ft 408 kts 116°
2026-04-17 13:19 50.21884 7.25414 18833 ft 405 kts 116°
2026-04-17 13:19 50.20688 7.29377 18275 ft 403 kts 116°
2026-04-17 13:20 50.19514 7.33299 17739 ft 399 kts 115°
2026-04-17 13:20 50.18421 7.37258 17215 ft 395 kts 114°
2026-04-17 13:20 50.17358 7.41169 16700 ft 392 kts 113°
2026-04-17 13:20 50.16389 7.45104 16412 ft 388 kts 111°
2026-04-17 13:21 50.15489 7.49035 16036 ft 383 kts 110°
2026-04-17 13:21 50.14623 7.52949 15476 ft 382 kts 110°
2026-04-17 13:21 50.13760 7.56860 14913 ft 381 kts 110°
2026-04-17 13:21 50.12894 7.60731 14349 ft 380 kts 110°
2026-04-17 13:22 50.12020 7.64585 13760 ft 379 kts 110°
2026-04-17 13:22 50.11027 7.68392 13164 ft 375 kts 118°
2026-04-17 13:22 50.09643 7.71765 12912 ft 365 kts 126°
2026-04-17 13:22 50.08193 7.74988 12688 ft 362 kts 126°
2026-04-17 13:23 50.06762 7.78192 12441 ft 360 kts 126°
2026-04-17 13:23 50.05399 7.81432 12202 ft 359 kts 118°
2026-04-17 13:23 50.04605 7.85073 11942 ft 357 kts 99°
2026-04-17 13:23 50.04605 7.88911 11621 ft 355 kts 79°
2026-04-17 13:24 50.05227 7.92602 11303 ft 354 kts 73°
2026-04-17 13:24 50.05903 7.96277 10987 ft 352 kts 74°
2026-04-17 13:24 50.06570 7.99913 10667 ft 346 kts 74°
2026-04-17 13:24 50.07214 8.03445 10389 ft 335 kts 74°
2026-04-17 13:25 50.07838 8.06877 10158 ft 325 kts 74°
2026-04-17 13:25 50.08439 8.10199 9897 ft 315 kts 75°
2026-04-17 13:25 50.09024 8.13437 9633 ft 307 kts 75°
2026-04-17 13:25 50.09595 8.16602 9369 ft 300 kts 75°
2026-04-17 13:26 50.10149 8.19668 9207 ft 291 kts 75°
2026-04-17 13:26 50.10692 8.22673 9205 ft 290 kts 75°
2026-04-17 13:26 50.11232 8.25669 9209 ft 289 kts 75°
2026-04-17 13:26 50.11778 8.28703 9210 ft 289 kts 75°
2026-04-17 13:27 50.12319 8.31711 9210 ft 289 kts 75°
2026-04-17 13:27 50.12859 8.34722 9072 ft 289 kts 75°
2026-04-17 13:27 50.13393 8.37722 8812 ft 287 kts 75°
2026-04-17 13:27 50.13926 8.40714 8554 ft 286 kts 75°
2026-04-17 13:28 50.14454 8.43687 8303 ft 285 kts 75°
2026-04-17 13:28 50.14980 8.46650 8042 ft 284 kts 75°
2026-04-17 13:28 50.15505 8.49598 7776 ft 282 kts 75°
2026-04-17 13:28 50.16028 8.52540 7518 ft 282 kts 75°
2026-04-17 13:29 50.16548 8.55477 7274 ft 281 kts 75°
2026-04-17 13:29 50.17060 8.58393 7025 ft 280 kts 75°
2026-04-17 13:29 50.17576 8.61317 6771 ft 279 kts 75°
2026-04-17 13:29 50.18089 8.64223 6541 ft 278 kts 75°
2026-04-17 13:30 50.18602 8.67130 6284 ft 278 kts 76°
2026-04-17 13:30 50.19109 8.70022 6024 ft 277 kts 76°
2026-04-17 13:30 50.19611 8.72901 5770 ft 272 kts 76°
2026-04-17 13:30 50.20102 8.75714 5517 ft 266 kts 75°
2026-04-17 13:31 50.20582 8.78454 5262 ft 259 kts 75°
2026-04-17 13:31 50.21051 8.81130 5013 ft 253 kts 75°
2026-04-17 13:31 50.21511 8.83754 4757 ft 248 kts 76°
2026-04-17 13:31 50.21959 8.86324 4503 ft 244 kts 75°
2026-04-17 13:32 50.22397 8.88850 4246 ft 241 kts 76°
2026-04-17 13:32 50.22829 8.91356 4059 ft 234 kts 75°
2026-04-17 13:32 50.23245 8.93769 4017 ft 228 kts 75°
2026-04-17 13:32 50.23457 8.96189 4010 ft 225 kts 99°
2026-04-17 13:33 50.22850 8.98389 4020 ft 223 kts 133°
2026-04-17 13:33 50.21591 8.99712 4021 ft 220 kts 159°
2026-04-17 13:33 50.20146 9.00503 4011 ft 221 kts 163°
2026-04-17 13:33 50.18677 9.01211 4007 ft 221 kts 165°
2026-04-17 13:34 50.17168 9.01371 4017 ft 219 kts 194°
2026-04-17 13:34 50.15843 9.00257 4016 ft 219 kts 219°
2026-04-17 13:34 50.14709 8.98673 4013 ft 220 kts 223°
2026-04-17 13:34 50.13605 8.97032 4022 ft 219 kts 224°
2026-04-17 13:35 50.12649 8.95214 4012 ft 219 kts 245°
2026-04-17 13:35 50.12101 8.92995 4020 ft 220 kts 250°
2026-04-17 13:35 50.11587 8.90754 4016 ft 219 kts 250°
2026-04-17 13:35 50.11082 8.88583 4005 ft 207 kts 249°
2026-04-17 13:36 50.10606 8.86556 4019 ft 194 kts 249°
2026-04-17 13:36 50.10153 8.84630 3807 ft 187 kts 250°
2026-04-17 13:36 50.09713 8.82761 3572 ft 181 kts 249°
2026-04-17 13:36 50.09286 8.80949 3338 ft 176 kts 249°
2026-04-17 13:37 50.08875 8.79208 3109 ft 168 kts 249°
2026-04-17 13:37 50.08474 8.77511 2898 ft 166 kts 249°
2026-04-17 13:37 50.08080 8.75841 2680 ft 162 kts 249°
2026-04-17 13:37 50.07706 8.74257 2467 ft 152 kts 249°
2026-04-17 13:38 50.07423 8.72717 2216 ft 146 kts 258°
2026-04-17 13:38 50.07244 8.71183 1934 ft 143 kts 261°
2026-04-17 13:38 50.07121 8.69676 1666 ft 140 kts 263°
2026-04-17 13:38 50.06889 8.68206 1444 ft 144 kts 246°
2026-04-17 13:39 50.06514 8.66839 1469 ft 136 kts 246°
2026-04-17 13:39 50.06130 8.65453 1420 ft 140 kts 248°
2026-04-17 13:39 50.05778 8.64045 1260 ft 140 kts 249°
2026-04-17 13:39 50.05431 8.62620 1046 ft 141 kts 250°
2026-04-17 13:40 50.05105 8.61188 844 ft 142 kts 252°
2026-04-17 13:40 50.04766 8.59742 627 ft 143 kts 252°
2026-04-17 13:40 50.04419 8.58320 393 ft 135 kts 250°
2026-04-17 13:40 50.04140 8.57130 369 ft 95 kts 250°
2026-04-17 13:41 50.03991 8.56465 358 ft 32 kts 260°
2026-04-17 13:41 50.04012 8.56237 358 ft 12 kts 280°
2026-04-17 13:41 50.04018 8.56177 350 ft 0 kts 280°
2026-04-17 13:41 50.04019 8.56173 350 ft 0 kts 280°
2026-04-17 13:42 50.04019 8.56172 352 ft 0 kts 280°
2026-04-17 13:42 50.04023 8.56130 355 ft 13 kts 284°
2026-04-17 13:42 50.04098 8.56135 358 ft 17 kts 56°
2026-04-17 13:43 50.04127 8.56297 355 ft 15 kts 68°
2026-04-17 13:43 50.04166 8.56443 355 ft 15 kts 69°
2026-04-17 13:43 50.04203 8.56593 361 ft 15 kts 70°
2026-04-17 13:43 50.04238 8.56749 359 ft 16 kts 70°
2026-04-17 13:44 50.04278 8.56915 359 ft 18 kts 68°
2026-04-17 13:44 50.04326 8.57101 361 ft 19 kts 70°
2026-04-17 13:44 50.04373 8.57311 365 ft 22 kts 70°
2026-04-17 13:44 50.04429 8.57545 366 ft 24 kts 70°
2026-04-17 13:45 50.04489 8.57791 367 ft 25 kts 70°
2026-04-17 13:45 50.04544 8.58027 369 ft 23 kts 69°
2026-04-17 13:45 50.04602 8.58272 371 ft 24 kts 72°
2026-04-17 13:45 50.04661 8.58495 371 ft 18 kts 70°
2026-04-17 13:46 50.04701 8.58675 372 ft 15 kts 68°
2026-04-17 13:46 50.04743 8.58841 370 ft 18 kts 69°
2026-04-17 13:46 50.04780 8.58984 370 ft 6 kts 69°
2026-04-17 13:46 50.04814 8.59004 368 ft 6 kts 353°
2026-04-17 13:47 50.04850 8.58987 367 ft 0 kts 340°
2026-04-17 13:48 50.04852 8.58986 367 ft 1 kts 340°
2026-04-17 13:48 50.04866 8.58978 367 ft 0 kts 340°